Location: Gleizolles
(44.4833°N, 6.7667°E)
Time: 13:36:51
(UTC+00:00)

Vanguard 1 - Pass Details

Date: 27 June 2024
Orbit: 650 x 3826 km, 34.3° (Epoch: 15 July)

Event Time Altitude Azimuth Distance (km) Brightness Sun altitude
Rises 12:06:10 0° 256° (WSW) 5,008 13.8 67.9°
Reaches altitude 10° 12:10:25 10° 249° (WSW) 3,504 13.3 67.7°
Maximum altitude 12:17:27 33° 188° (S) 1,554 12.2 67.2°
Drops below altitude 10° 12:22:07 10° 124° (SE) 2,293 12.2 66.8°
Sets 12:24:20 0° 114° (ESE) 3,075 12.6 66.6°
